Overview Statistics Trail Chart Weather Telemetry Raw packets
 

This is the latest recevied weather packets stored in our database for station/object OK1ALX-6. If no packets are shown the sender has not sent any weather packets the latest 10 day(s).

<< 3 4 5 6 7 8 9 >>
Time Temp. Humidity Pressure Rain* Wind** Luminosity Snow
1788538803 27.78° C 48% 1014.3 hPa 0 mm - 57 W/m² -
1788538203 27.78° C 48% 1014.4 hPa 0 mm - 75 W/m² -
1788537603 27.78° C 46% 1014.7 hPa 0 mm - 105 W/m² -
1788537003 27.78° C 46% 1014.8 hPa 0 mm - 134 W/m² -
1788536403 27.22° C 46% 1014.6 hPa 0 mm - 181 W/m² -
1788535803 27.78° C 47% 1015 hPa 0 mm - 126 W/m² -
1788535221 27.78° C 46% 1015 hPa 0 mm - 243 W/m² -
1788534603 27.78° C 46% 1015.2 hPa 0 mm - 271 W/m² -
1788534004 27.78° C 46% 1015.2 hPa 0 mm - 234 W/m² -
1788533403 27.78° C 47% 1015.5 hPa 0 mm - 333 W/m² -
1788532803 27.78° C 47% 1015.8 hPa 0 mm - 319 W/m² -
1788532203 27.22° C 47% 1016.1 hPa 0 mm - 374 W/m² -
1788531603 27.22° C 46% 1016.3 hPa 0 mm - 316 W/m² -
1788531003 27.22° C 48% 1016.4 hPa 0 mm - 374 W/m² -
1788530403 27.22° C 48% 1016.6 hPa 0 mm - 441 W/m² -
1788529803 26.67° C 49% 1016.8 hPa 0 mm - 120 W/m² -
1788529203 27.22° C 49% 1016.8 hPa 0 mm - 471 W/m² -
1788528603 26.67° C 51% 1016.8 hPa 0 mm - 477 W/m² -
1788528003 26.11° C 51% 1017.1 hPa 0 mm - 210 W/m² -
1788527403 25.56° C 55% 1017.7 hPa 0 mm - 525 W/m² -
1788526803 25° C 55% 1017.9 hPa 0 mm - 149 W/m² -
1788526203 25° C 54% 1018.1 hPa 0 mm - 101 W/m² -
1788525603 25.56° C 52% 1018.2 hPa 0 mm - 166 W/m² -
1788525003 25.56° C 52% 1018 hPa 0 mm - 200 W/m² -
1788524403 25.56° C 53% 1018.3 hPa 0 mm - 494 W/m² -

* Rain latest hour (hover to see other rain measurements)
** Current wind speed in m/s (hover to see current wind gust speed)